Tekakwitha, South Dakota
Current Conditions -  °F | °C
As of 3:36 AM on Saturday 20 Dec 2014 (Local Time) from KETH Reporting Station
Overcast Overcast  
Wind Chill: 20°   Ceiling: 1100
Heat Index: 28°   Visibility: 7mi
Dew Point: 27°   Wind: 8mph
Humidity: 93%   Direction: 190°S
Pressure: 30.07"   Gusts: NA
Location:  45.7041°N, 96.9842°W
Report Text: KETH 200936Z AUTO 19007KT 7SM OVC011 M02/M03 A3007 RMK AO2
Loading
Personal Weather Stations






























Interactive Weather Map New forecast layout! Learn more

10-Day Weather Forecast

Advertisements
Track Severe Weather on mobile